Location: Beaurecueil
(43.5122°N, 5.5450°E)
Time: 14:21:50
(UTC+00:00)

Nadezhda 4 Rocket - Pass Details

Date: 18 September 2020
Orbit: 949 x 992 km, 82.9° (Epoch: 29 October)

Event Time Altitude Azimuth Distance (km) Brightness Sun altitude
Rises 18:51:39 0° 357° (N) 3,637 7.2 -13.3°
Reaches altitude 10° 18:54:18 10° 4° (N) 2,685 6.5 -13.8°
Maximum altitude 19:00:07 44° 76° (ENE) 1,296 4.3 -14.8°
Enters shadow 19:04:42 16° 142° (SE) 2,263 5.4 -15.6°
